Norah Head Observation History
Time Wind Speed Temp Pressure Rel. Hum Rain
03/06:30am NW 4-6 kts 9.1°c 1019.2 hPa 79% 3.8mm
03/06:00am WNW 5-7 kts 8.8°c 1019.4 hPa 77% 3.8mm
03/05:30am WNW 5-8 kts 8.7°c 1019.2 hPa 78% 3.8mm
03/05:00am WNW 4-8 kts 8.8°c 1018.8 hPa 77% 3.8mm
03/04:30am WNW 5-8 kts 9.2°c 1018.6 hPa 76% 3.8mm
03/04:00am WNW 4-7 kts 8.8°c 1018.3 hPa 78% 3.8mm
03/03:30am NW 4-8 kts 8.9°c 1018.1 hPa 78% 3.8mm
03/03:00am NW 4-7 kts 8.8°c 1018.1 hPa 77% 3.8mm
03/02:30am NW 4-8 kts 8.6°c 1018.2 hPa 76% 3.8mm
03/02:00am NW 4-6 kts 8.9°c 1018.2 hPa 76% 3.8mm
03/01:30am NW 3-5 kts 8.9°c 1018.2 hPa 75% 3.8mm
03/01:00am NW 4-7 kts 8.9°c 1018.2 hPa 74% 3.8mm
03/12:30am WNW 3-5 kts 8.5°c 1018.4 hPa 73% 3.8mm
03/12:00am WNW 3-5 kts 8.5°c 1018.7 hPa 73% 3.8mm
Time Wind Speed Temp Pressure Rel. Hum Rain
02/11:30pm NW 3-7 kts 8.9°c 1018.7 hPa 72% 3.8mm
02/11:00pm WNW 3-5 kts 9.1°c 1018.6 hPa 69% 3.8mm
02/10:30pm WNW 4-7 kts 9.4°c 1018.4 hPa 67% 3.8mm
02/10:00pm W 5-9 kts 9.7°c 1018.4 hPa 66% 3.8mm
02/09:30pm WNW 4-8 kts 9.8°c 1018.3 hPa 66% 3.8mm
02/09:00pm WNW 4-8 kts 10.0°c 1018.4 hPa 66% 3.8mm
02/08:30pm WNW 5-10 kts 10.3°c 1018.2 hPa 66% 3.8mm
02/08:00pm W 6-13 kts 10.8°c 1018.0 hPa 64% 3.8mm
02/07:30pm W 7-12 kts 11.2°c 1017.5 hPa 64% 3.8mm
02/07:00pm W 6-12 kts 11.5°c 1017.1 hPa 64% 3.8mm
02/06:30pm W 7-12 kts 11.9°c 1016.6 hPa 64% 3.8mm
02/06:00pm W 5-10 kts 12.5°c 1016.0 hPa 64% 3.8mm
02/05:30pm W 5-9 kts 12.9°c 1015.7 hPa 67% 3.8mm
02/05:00pm WSW 6-9 kts 13.5°c 1015.1 hPa 63% 3.8mm
02/04:30pm WSW 5-11 kts 13.9°c 1014.6 hPa 63% 3.8mm
02/04:00pm WSW 6-9 kts 13.8°c 1014.4 hPa 64% 3.8mm
02/03:30pm WSW 7-11 kts 13.4°c 1014.2 hPa 69% 3.8mm
02/03:00pm WSW 7-9 kts 13.4°c 1014.1 hPa 69% 3.8mm
02/02:30pm WSW 6-9 kts 13.1°c 1013.8 hPa 72% 3.8mm
02/02:00pm WSW 5-7 kts 12.6°c 1013.6 hPa 75% 3.8mm
02/01:30pm W 4-9 kts 12.5°c 1013.2 hPa 76% 3.8mm
02/01:00pm W 3-7 kts 11.9°c 1013.2 hPa 80% 3.8mm
02/12:30pm WNW 3-7 kts 11.5°c 1013.3 hPa 87% 3.8mm
02/12:00pm NW 4-6 kts 10.6°c 1013.6 hPa 89% 3.8mm
02/11:30am NW 5-10 kts 10.0°c 1013.8 hPa 90% 3.8mm
02/11:00am NW 4-7 kts 9.4°c 1014.3 hPa 90% 3.6mm
02/10:30am NW 5-8 kts 8.8°c 1014.8 hPa 89% 3.4mm
02/10:00am WNW 4-7 kts 8.7°c 1015.3 hPa 86% 2.6mm
02/09:30am W 6-10 kts 9.2°c 1015.3 hPa 77% 0.4mm
02/09:00am W 4-8 kts 9.7°c 1014.9 hPa 73% 0.2mm
02/08:30am W 6-13 kts 10.1°c 1014.9 hPa 66% 0.2mm
02/08:00am WNW 6-11 kts 10.7°c 1014.3 hPa 62% 0.2mm
02/07:30am WNW 3-7 kts 9.4°c 1014.2 hPa 66% 0.2mm
02/07:00am WNW 3-8 kts 8.9°c 1013.9 hPa 67% 0.2mm
02/06:30am NW 4-8 kts 8.8°c 1013.5 hPa 67% 0.2mm
02/06:00am WNW 3-8 kts 8.9°c 1013.5 hPa 64% 0.2mm
02/05:30am WNW 3-6 kts 9.2°c 1013.0 hPa 64% 0.2mm
02/05:00am W 4-10 kts 9.5°c 1012.4 hPa 62% 0.2mm
02/04:30am WNW 4-9 kts 9.7°c 1011.8 hPa 63% 0.2mm
02/04:00am NW 5-10 kts 9.9°c 1011.6 hPa 62% 0.2mm
02/03:30am NW 5-11 kts 9.9°c 1011.6 hPa 62% 0.2mm
02/03:00am WNW 7-12 kts 9.6°c 1011.8 hPa 62% 0.2mm
02/02:30am WNW 5-11 kts 9.7°c 1012.3 hPa 64% 0.2mm
02/02:00am WNW 3-7 kts 9.7°c 1012.8 hPa 64% 0.2mm
02/01:30am NW 4-9 kts 10.1°c 1013.0 hPa 62% 0.2mm
02/01:00am NW 5-9 kts 10.3°c 1013.0 hPa 63% 0.2mm
02/12:30am NW 3-5 kts 10.1°c 1013.2 hPa 64% 0.2mm
02/12:00am NW 3-6 kts 10.5°c 1013.2 hPa 64% 0.2mm
Time Wind Speed Temp Pressure Rel. Hum Rain
01/11:30pm NW 2-7 kts 11.0°c 1013.3 hPa 63% 0.2mm
01/11:00pm NW 4-8 kts 11.9°c 1013.3 hPa 56% 0.2mm
01/10:30pm WNW 5-9 kts 12.0°c 1013.2 hPa 54% 0.2mm
01/10:00pm WNW 5-10 kts 12.2°c 1013.0 hPa 56% 0.2mm
01/09:30pm WNW 6-12 kts 12.6°c 1012.6 hPa 56% 0.2mm
01/09:00pm W 5-9 kts 12.7°c 1012.5 hPa 59% 0.2mm
01/08:30pm WNW 3-8 kts 12.4°c 1012.2 hPa 66% 0.2mm
01/08:00pm W 7-14 kts 12.7°c 1011.9 hPa 65% 0.2mm
01/07:30pm WSW 11-20 kts 13.5°c 1011.5 hPa 62% 0.2mm
01/07:00pm WSW 10-16 kts 16.8°c 1010.1 hPa 50% 0.2mm
01/06:30pm W 7-19 kts 17.9°c 1009.4 hPa 43% 0.2mm
01/06:00pm W 5-11 kts 18.4°c 1008.5 hPa 44% 0.2mm
01/05:30pm WNW 5-9 kts 19.1°c 1007.8 hPa 42% 0.2mm
01/05:00pm WNW 5-11 kts 19.3°c 1007.1 hPa 48% 0.2mm
01/04:30pm NNW 7-14 kts 19.2°c 1006.6 hPa 62% 0.2mm
01/04:00pm N 13-16 kts 20.2°c 1006.2 hPa 62% 0.2mm
01/03:30pm N 16-18 kts 20.6°c 1006.0 hPa 58% 0.2mm
01/03:00pm N 16-20 kts 21.0°c 1005.9 hPa 53% 0.2mm
01/02:30pm N 15-18 kts 21.1°c 1006.0 hPa 56% 0.2mm
01/02:00pm NNW 11-16 kts 22.1°c 1006.2 hPa 49% 0.2mm
01/01:30pm NNW 15-21 kts 21.8°c 1006.3 hPa 48% 0.0mm
01/01:00pm NNW 18-23 kts 21.7°c 1006.7 hPa 51% 0.0mm
01/12:30pm N 19-25 kts 21.4°c 1007.3 hPa 53% 0.0mm
01/12:00pm N 21-25 kts 21.4°c 1007.8 hPa 54% 0.0mm
01/11:30am N 15-22 kts 21.4°c 1008.7 hPa 52% 0.0mm
01/11:00am N 16-24 kts 21.1°c 1009.4 hPa 55% 0.0mm
01/10:30am N 17-22 kts 20.9°c 1010.1 hPa 56% 0.0mm
01/10:00am N 19-23 kts 20.0°c 1010.3 hPa 59% 0.0mm
01/09:30am N 16-18 kts 19.5°c 1010.8 hPa 63% 0.0mm
01/09:00am N 12-13 kts 18.5°c 1011.3 hPa 66% 0.0mm
01/08:30am N 14-16 kts 17.5°c 1011.5 hPa 66% 0.0mm
01/08:00am N 13-16 kts 17.4°c 1011.4 hPa 67% 0.0mm
01/07:30am N 13-15 kts 17.2°c 1011.3 hPa 67% 0.0mm
01/07:00am N 12-15 kts 17.1°c 1011.2 hPa 69% 0.0mm
01/06:30am N 15-18 kts 17.1°c 1010.9 hPa 69% 0.0mm
01/06:00am N 17-19 kts 17.1°c 1010.9 hPa 71% 0.0mm
01/05:30am N 14-16 kts 17.1°c 1011.0 hPa 75% 0.0mm
01/05:00am N 11-13 kts 16.5°c 1011.1 hPa 77% 0.0mm
01/04:30am NNW 10-13 kts 15.9°c 1011.3 hPa 84% 0.0mm
01/04:00am NNW 7-10 kts 14.8°c 1011.6 hPa 89% 0.0mm
01/03:30am N 7-9 kts 15.3°c 1011.8 hPa 93% 0.0mm
01/03:00am N 6-7 kts 14.5°c 1012.2 hPa 91% 0.0mm
01/02:30am NNW 4-5 kts 14.0°c 1012.3 hPa 88% 0.0mm
01/02:00am NNW 4-6 kts 14.0°c 1012.6 hPa 88% 0.0mm
01/01:30am NW 4-5 kts 13.8°c 1013.1 hPa 88% 0.0mm
01/01:00am NW 2-4 kts 13.9°c 1013.4 hPa 89% 0.0mm
01/12:30am NW 5-7 kts 14.4°c 1013.7 hPa 90% 0.0mm
01/12:00am NW 6-9 kts 14.9°c 1013.9 hPa 91% 0.0mm